Wind_Speed
11 12 11 10 10 10 10 10 10 10 11 11 11 11 12 13 12 9 7 11 9 10 4 6 11 18 18 5 7 6 3 7 10 12 14 11 10 6 13 20 17 11 11 36 36
12 12 12 12 11 10 9 9 10 11 11 12 11 11 11 12 12 14 19 13 6 13 8 13 12 16 9 4 5 3 3 3 5 4 5 8 14 10 12 7 19 20 22 34 31
13 12 12 11 11 10 10 10 10 11 11 11 11 10 9 8 5 8 6 22 16 12 11 18 20 11 8 4 3 4 6 5 10 12 16 5 10 7 20 18 22 19 24 24 26
15 15 13 13 12 10 9 9 10 10 11 10 9 8 6 1 1 1 3 22 20 11 11 13 11 9 12 8 11 11 15 17 5 12 10 4 2 5 10 21 20 14 22 18 16
16 17 16 13 12 11 10 9 8 9 9 9 8 6 2 4 9 5 4 17 16 11 15 12 12 10 12 2 7 8 19 20 12 21 7 10 10 4 20 21 16 13 16 15 14
16 17 17 15 13 11 10 9 9 8 8 8 6 3 2 4 8 4 9 14 12 16 17 18 9 10 8 3 12 6 20 21 17 9 4 6 3 4 10 21 18 13 9 14 16
14 15 16 15 12 11 10 10 9 8 6 4 3 2 5 13 1 5 7 11 16 17 10 22 25 8 9 2 11 7 21 12 8 4 4 3 5 5 2 14 19 12 10 19 21
15 16 16 15 13 12 11 10 10 7 4 2 2 2 7 9 17 12 10 11 12 20 23 23 19 9 4 7 3 9 7 6 6 9 4 0 4 4 6 10 14 14 12 20 18
16 16 16 16 15 13 11 10 8 4 2 1 2 4 7 4 8 18 15 16 18 18 24 24 14 7 6 4 5 4 4 4 10 9 7 5 4 7 2 5 5 11 9 18 18
15 15 16 17 16 15 12 12 9 3 3 4 10 5 9 12 10 20 17 19 13 10 11 8 3 2 4 3 5 8 6 5 9 6 8 7 6 6 2 3 4 8 11 11 18
15 15 17 17 17 17 14 6 1 2 7 9 6 6 10 16 14 10 13 16 8 4 6 5 3 7 11 13 14 6 8 7 7 10 4 7 7 13 4 3 4 6 9 10 14
17 17 18 18 19 19 8 4 9 15 7 14 17 16 24 12 4 8 14 5 6 7 8 5 9 12 14 16 11 5 3 7 8 9 5 5 6 7 5 1 5 5 9 9 4
19 19 19 18 20 16 8 15 12 21 4 8 14 7 7 8 6 8 10 9 7 8 9 9 13 16 17 13 1 9 1 9 8 4 1 8 4 6 6 4 2 5 4 9 6
20 21 20 18 11 9 12 22 15 19 3 4 8 6 11 5 8 17 17 9 7 10 12 9 18 13 13 9 7 5 17 17 18 8 4 2 1 8 8 13 8 9 7 7 7
23 23 18 16 16 6 15 21 9 9 3 6 4 7 6 7 4 11 18 10 12 8 7 12 11 10 12 14 7 10 8 15 10 5 9 5 7 5 15 18 18 13 12 14 7
28 23 16 5 10 15 23 24 20 2 4 5 7 5 6 9 13 11 6 7 9 12 8 11 10 7 9 13 11 10 14 16 9 3 2 12 9 5 13 28 24 17 15 14 10
30 22 15 8 6 14 27 9 2 3 3 4 4 9 10 5 8 10 9 8 6 3 6 10 12 8 4 4 4 9 18 4 3 2 3 9 10 12 23 19 23 21 19 18 17
29 16 9 15 16 16 19 2 1 7 11 15 17 10 5 4 11 10 8 9 12 11 5 5 7 1 4 4 8 8 7 4 4 1 5 4 6 7 3 2 9 15 16 19 21
21 6 4 11 11 11 3 2 3 4 12 13 8 4 4 9 9 7 8 10 12 13 4 4 9 6 8 5 5 4 5 11 8 5 2 3 1 4 18 13 16 8 11 18 21
11 6 15 11 11 9 2 5 7 5 10 4 3 5 2 9 7 4 7 11 14 10 6 5 5 5 9 7 8 4 4 4 2 4 4 0 5 5 3 5 3 9 11 15 19
3 2 7 19 17 3 4 9 2 8 3 4 3 2 5 2 11 11 10 16 4 5 9 6 3 8 5 6 8 3 4 3 2 3 5 2 3 7 9 10 11 11 8 11 16
7 3 18 16 3 4 5 6 5 4 3 4 5 2 1 6 5 2 4 2 23 13 5 6 3 5 4 2 7 7 7 7 5 8 2 4 3 8 14 17 15 13 17 16 14
4 3 15 13 4 6 7 3 7 10 8 10 4 4 4 4 5 6 2 8 12 7 3 5 5 4 12 4 7 3 7 5 4 2 6 1 2 5 4 7 6 8 9 6 13
3 3 2 3 8 12 9 0 5 5 5 5 7 9 7 8 4 3 2 5 4 5 7 1 3 3 7 8 4 8 15 14 5 1 4 4 5 2 7 2 7 9 12 14 13
3 4 7 5 5 12 4 5 7 4 1 4 1 7 3 5 8 4 5 4 11 3 6 4 3 5 6 4 3 9 14 18 9 8 4 7 6 6 1 10 5 8 20 19 17
3 7 7 9 4 7 4 4 5 7 10 6 6 6 8 5 1 6 4 1 2 7 4 3 2 7 7 4 2 5 13 13 16 13 15 15 7 6 5 7 8 11 22 15 18
10 10 3 7 5 2 1 6 8 4 2 7 8 7 11 10 6 5 8 7 8 3 3 4 3 4 4 9 3 2 6 10 19 12 9 7 4 8 11 11 8 8 7 11 7
Wind_Direction
343 340 337 328 324 313 309 309 308 310 311 311 314 317 317 312 299 284 240 219 208 206 216 209 215 232 237 201 145 137 50 333 329 75 144 142 107 80 97 134 128 105 139 133 138
344 337 336 334 328 318 310 302 301 303 307 312 316 318 321 326 314 254 247 233 234 200 224 224 210 231 216 221 144 88 79 240 275 297 162 127 122 144 113 212 125 134 118 126 131
345 340 337 336 327 320 312 302 298 297 302 310 314 318 327 346 277 241 271 204 228 208 212 228 235 217 219 135 165 87 174 186 298 297 281 97 154 186 147 133 140 145 129 143 142
353 347 342 336 329 321 305 299 294 295 299 305 312 319 335 34 2 344 351 199 213 219 208 256 265 253 235 191 206 142 203 183 222 278 276 341 182 5 139 131 130 137 141 154 141
359 354 347 339 332 326 317 309 305 301 301 306 315 334 19 228 251 241 180 184 197 190 208 225 253 245 246 190 36 135 167 182 170 217 95 75 34 34 116 124 128 145 145 135 141
356 356 354 349 343 339 334 326 313 307 303 308 311 354 267 253 185 179 187 191 195 191 214 233 251 242 280 106 88 249 175 182 183 124 66 86 26 96 128 129 139 165 162 132 129
352 351 355 353 349 345 336 332 325 308 300 304 315 3 266 246 169 165 175 205 185 198 224 231 250 270 319 26 146 96 134 111 133 98 110 110 19 90 186 135 148 166 171 133 141
347 348 353 352 346 339 335 334 335 318 295 264 157 204 257 245 251 274 186 192 208 213 232 240 251 277 315 306 119 137 262 136 190 137 161 200 243 289 25 158 153 167 190 139 147
349 346 346 344 340 335 328 327 321 333 330 91 288 228 263 225 210 236 201 205 204 216 233 250 235 244 298 274 4 218 179 95 161 167 148 207 212 263 35 44 146 175 169 138 147
347 340 339 338 335 331 324 319 303 273 329 249 269 275 258 235 215 220 206 226 192 202 232 242 3 237 262 249 227 232 192 204 170 168 163 150 190 252 173 97 345 316 152 136 135
341 335 336 334 332 326 323 340 218 210 241 218 186 241 302 229 187 208 182 230 197 213 204 190 172 228 229 234 231 268 119 130 101 42 235 186 144 188 231 83 319 326 136 103 145
338 333 331 328 327 319 314 244 255 295 303 238 252 240 261 120 156 197 198 215 172 217 208 248 216 236 239 252 269 130 318 69 78 80 300 196 163 181 182 217 255 150 86 84 9
335 332 327 326 320 302 241 248 279 294 293 277 222 246 262 158 197 204 164 216 183 231 217 215 238 217 238 255 156 284 128 161 127 147 35 25 134 192 237 157 232 110 126 119 117
335 331 326 329 320 327 275 287 274 276 299 232 189 215 235 215 237 180 187 194 189 216 236 226 250 220 227 243 195 71 119 129 136 143 116 80 238 219 207 232 210 191 185 157 169
334 327 324 324 300 287 277 329 327 288 320 152 156 128 164 217 281 159 192 243 265 232 190 247 240 239 203 231 178 130 155 134 123 93 119 167 290 222 187 218 218 199 188 185 190
332 326 317 337 289 272 316 304 304 347 256 262 142 183 241 212 256 150 184 240 275 284 248 246 253 243 202 216 187 184 120 124 133 145 194 155 189 226 193 209 208 192 190 190 184
329 320 297 256 245 290 315 269 309 238 249 252 158 165 214 259 264 160 183 230 240 246 267 260 257 252 110 81 305 219 132 140 265 263 255 168 171 244 222 217 201 191 187 187 192
326 303 275 258 266 285 314 304 87 234 268 74 55 62 75 79 309 258 187 223 247 256 221 215 279 114 120 204 214 202 172 177 73 331 290 251 195 331 26 59 178 214 195 193 202
330 318 241 260 227 257 313 280 273 272 50 92 75 71 47 70 253 280 199 226 237 235 197 306 251 209 201 182 196 230 146 233 131 209 156 174 127 301 69 44 45 15 226 195 200
337 305 241 212 196 212 283 256 259 266 46 91 113 96 83 258 234 334 218 218 246 247 111 277 263 259 208 153 267 213 240 4 318 191 232 172 125 198 105 186 39 345 309 229 189
319 281 218 168 178 217 250 261 203 87 358 52 83 154 209 190 30 299 348 308 351 301 77 354 29 303 173 181 192 269 292 287 156 150 191 164 268 184 166 185 132 273 266 271 187
313 294 148 157 190 227 244 319 353 44 301 139 137 234 92 60 80 326 9 206 321 5 17 345 300 308 252 161 218 214 228 203 131 287 257 163 240 145 163 187 186 211 217 213 214
302 282 158 184 249 260 271 303 32 8 7 15 84 139 198 148 123 163 98 281 299 39 34 331 339 348 352 7 15 326 321 289 215 229 270 58 241 79 82 65 48 354 305 285 203
284 284 193 199 242 268 284 166 106 27 344 12 345 345 34 37 26 124 245 254 333 56 340 48 23 104 148 254 239 323 331 336 326 60 240 15 110 70 89 43 1 337 11 347 238
228 279 308 236 230 250 38 69 105 152 189 322 160 312 56 87 53 346 328 353 343 39 338 40 22 26 176 226 354 299 320 316 332 258 114 172 74 148 152 102 234 58 50 8 146
291 331 339 292 347 304 127 95 123 54 25 29 34 62 92 108 43 50 119 318 320 319 320 312 319 24 336 328 255 264 296 348 338 356 84 95 87 152 130 124 70 69 78 24 328
346 334 299 295 312 263 310 311 108 52 89 54 13 20 42 4 10 340 307 293 190 225 359 38 35 43 305 341 264 198 335 26 356 29 96 64 78 75 74 72 84 51 64 155 240
Height
798 797 796 794 793 792 791 790 788 787 786 784 783 782 780 778 776 776 773 766 768 770 772 773 774 773 775 778 778 788 814 814 804 790 790 769 774 770 770 778 783 784 790 798 807
798 796 795 793 791 790 789 788 787 786 785 783 782 781 779 778 776 771 762 764 765 768 771 771 771 770 774 774 779 795 814 818 800 804 796 776 768 773 787 798 791 792 795 801 805
797 795 793 792 790 788 787 786 785 784 783 782 781 780 779 779 778 759 752 759 764 767 769 768 766 765 774 773 779 791 812 805 790 787 787 774 775 766 786 794 789 794 797 799 807
797 794 792 790 788 786 785 784 783 782 782 781 780 779 778 779 777 752 751 755 761 765 767 768 766 770 770 779 762 802 794 794 799 794 791 780 773 774 776 783 780 787 792 797 802
796 794 791 789 787 785 784 782 781 781 780 779 779 778 779 779 765 753 753 756 760 763 764 765 768 765 769 758 760 785 791 795 794 795 780 777 786 784 782 779 784 786 792 797 800
796 793 791 788 786 784 783 781 780 780 779 779 778 778 780 780 751 751 752 755 758 761 761 761 759 753 759 762 774 765 771 781 782 779 781 784 789 781 792 781 788 790 793 797 801
797 794 791 788 786 784 782 781 779 778 778 778 778 780 779 764 751 750 751 753 756 758 759 755 753 756 753 761 755 762 778 780 782 785 790 784 798 799 792 783 789 793 793 799 802
797 794 792 789 786 784 782 780 779 778 777 777 777 780 772 750 749 749 750 752 754 757 756 751 750 752 755 751 758 781 789 798 791 785 789 793 818 799 791 787 793 793 792 800 805
797 794 791 788 786 784 782 780 779 777 777 778 779 779 767 748 747 746 747 749 751 753 752 750 748 757 757 773 791 773 795 790 798 783 792 799 817 796 795 794 796 794 793 799 803
796 793 791 788 785 783 781 779 778 778 778 779 779 784 758 746 741 742 745 746 747 749 753 753 757 770 773 785 818 793 788 793 793 795 790 805 809 797 796 799 803 802 792 798 801
795 793 790 787 785 782 780 778 781 781 778 765 758 755 739 738 740 740 743 744 745 750 770 757 782 792 777 766 762 757 776 785 808 806 799 803 807 801 797 802 803 801 797 799 801
795 792 789 786 783 780 779 779 768 762 765 750 748 745 739 737 746 742 743 750 754 772 762 773 789 765 754 750 753 759 779 805 816 808 815 808 809 799 799 804 803 802 807 805 811
794 791 788 785 780 777 775 770 761 758 766 750 743 740 737 737 745 745 743 748 758 770 767 779 762 748 752 753 761 768 775 800 804 815 817 818 822 815 805 804 807 805 807 808 812
793 790 787 783 782 778 773 762 759 758 780 754 747 739 737 736 748 734 739 746 753 767 762 765 741 747 752 758 749 787 772 789 801 813 838 827 840 823 813 812 807 805 807 803 812
791 788 785 783 781 777 764 758 758 758 809 748 743 731 731 745 738 740 735 742 758 755 756 764 748 750 755 749 741 776 761 776 795 813 818 836 851 820 815 815 802 801 802 799 800
789 785 783 782 779 769 764 761 760 790 803 757 738 746 748 743 740 736 741 738 737 749 744 746 724 731 736 729 732 739 771 786 799 815 831 813 830 823 809 788 784 789 792 791 799
785 782 780 780 775 768 765 762 790 801 751 756 749 745 751 754 746 744 753 760 768 775 775 750 742 726 721 742 738 746 779 824 831 825 814 803 817 795 775 771 771 781 787 787 793
779 776 775 773 770 768 767 777 803 775 767 737 750 751 769 766 764 756 757 766 749 755 767 777 782 735 725 743 760 760 770 804 845 836 817 782 807 797 759 774 774 779 789 791 793
774 772 772 766 768 769 775 791 780 762 744 750 754 769 776 780 773 763 759 760 746 742 771 774 767 726 725 726 738 754 780 755 811 798 810 791 790 770 768 783 787 798 786 787 790
773 772 765 764 767 771 783 785 763 740 738 746 777 769 791 783 774 763 758 740 741 729 731 749 778 736 728 726 732 746 744 788 790 814 814 786 795 803 781 791 782 789 799 784 782
773 772 755 760 765 772 790 769 744 734 736 749 761 766 765 770 785 779 778 751 730 729 730 745 760 758 732 748 760 759 769 764 774 784 812 815 801 762 778 780 775 772 784 793 777
776 779 756 759 777 768 768 745 740 738 732 740 747 753 759 761 780 783 782 770 736 735 754 745 759 779 754 726 727 738 754 763 802 797 784 788 806 766 768 769 771 771 769 768 770
782 770 755 755 782 770 752 746 743 748 745 747 750 747 745 756 776 768 765 747 741 747 760 755 772 790 786 747 740 749 748 747 757 764 788 795 804 776 777 784 787 785 774 770 767
785 776 757 754 752 759 755 750 755 744 747 746 752 747 753 767 762 773 768 749 741 745 748 749 768 782 815 798 784 778 761 753 758 787 781 793 793 788 783 784 792 790 780 776 774
781 768 756 767 758 750 745 747 756 761 748 747 755 755 759 782 778 775 762 758 750 749 747 758 782 773 776 763 761 767 766 758 763 761 777 781 787 785 785 784 799 785 771 774 772
783 775 760 757 744 749 753 755 757 755 759 761 760 753 760 776 774 783 774 766 773 759 756 756 782 771 778 761 760 771 763 760 754 749 771 775 793 783 779 786 788 777 764 793 781
777 772 769 759 754 753 755 755 754 753 753 752 758 764 771 769 760 758 758 757 761 763 769 775 781 791 797 775 767 787 782 769 765 753 761 791 785 778 783 784 790 790 787 787 794